Volver al catálogo

COSMOS 839 DEB

ActivoLEO
NORAD 12543·DEBRIS·🇷🇺 Russia

Lanzado Jul 8, 1976 desde Plesetsk Cosmodrome

Loading…

Próximos Pases (próximas 24 horas)

TLE

ActualizadoSource: Space-Track

Época: Sep 14, 2026, 09:09 UTC

1 12543U 76067BA  26257.38136019 -.00000125  00000-0 -24341-3 0  9991
2 12543  66.0304  21.4601 0627593  37.8364 356.1361 12.44566426268981

Sigue COSMOS 839 DEB en tiempo real con AllMySat

Download on the App Store